User: anonymous   Login
Location: Coupvray
(48.8929°N, 2.7967°E)
Time: 18:47:47
(UTC+00:00)
Language:

Meteor 1-20 Rocket - Orbit

View from above orbital plane
View from above orbital plane
View from above satellite
View from above satellite

Ground track
Ground track

The orbit data is extracted from the following two-line orbital elements,

1  7575U 74099B   20263.32425729 +.00000101 +00000-0 +48094-4 0  9991
2  7575 081.2441 233.3553 0050959 135.5346 224.9934 14.11072786354221
Epoch (UTC): 19 September 2020 07:46:55
Eccentricity: 0.0050959
inclination: 81.2441°
perigee height: 819 km
apogee height: 892 km
right ascension of ascending node: 233.3553°
argument of perigee: 135.5346°
revolutions per day: 14.11072786
mean anomaly at epoch: 224.9934°
orbit number at epoch: 35422

The dashed part of the orbit path shows where the satellite is in the earth's shadow,  

DLR